FREGAT R/B, 43235

Orbit data source: Space-Track

FREGAT R/B, 43235 is space debris originally from a launch on Fri, 09 Mar 2018 UTC launched from the French Guiana (FRGUI). Debris objects in space refer to the collection of defunct objects orbiting the Earth. Examples of debris include non-operational satellites, rocket bodies, and fragments generated from explosions, collisions, or faulty payload assembly.

Loading next visibility...
Identifier
43235, 2018-024E
Orbit
Active
Country
Flag of CISCIS
Related business
Manufacturer
Lavochkin
Mission
Spacecraft
Bus & Motor
FREGAT, Unknown motor
Mass
1,050 kg wet, 1,050 kg dry
Launch date (UTC)
2018-03-09 (8 years ago)
Launch vehicle
Unknown
Launch site
French Guiana (FRGUI)
Object type
Payload
Rocket body
Debris
Shape & HBR
Irr, 1.6 m
Radar Cross Section
11.055 m², Large (>1 m²)

Expand to show TLE details & history
Last TLE update: 2 days ago

TLE from 2 days ago
0 FREGAT R/B
1 43235U 18024E   26171.24665380 -.00000020  00000-0  00000+0 0  9995
2 43235   0.0342 236.9211 0011015 191.0304 292.1631  5.21348054157715
Epoch: 2026-06-20T05:55Z
TLE epoch observation values (Epoch: 2026-06-20T05:55:10.888Z)
Latitude
0.02866°
Longitude
2.74056°
Altitude
7,663.627 km
Speed
5.33 km/s
True Right ascension
23h 59m 59s
True Declination
0° 01' 43"
Sunlit
Object was in daylight at epoch
Visualization orbit readout
Latitude
Unknown
Longitude
Unknown
Altitude
Unknown
Speed
Unknown
Apparent Right ascension
Unknown
Apparent Declination
Unknown
Sunlit
N/A
Visualization observer readout
Local Sidereal Time
23:27:05
Azimuth
Unknown
Elevation
Unknown
Doppler factor
Unknown
Orbital elements
Apogee altitude
7,689.634 km
Perigee altitude
7,658.677 km
Semi-major axis
14,052.292 km
Eccentricity
0.0011
Inclination
0.0342°
RAAN
236.9211°
Arg. of periapsis
191.0304°
True anomaly
292.04614°
Mean anomaly
292.1631°
Eccentric anomaly
292.10463°
Mean motion
1.30293 °/min
Orbital period
276.3 mins
BSTAR
0
Loading maneuver chart data...
Computing Atmospheric mass density...
Loading historical data...
Loading historical data...
Loading historical data...
Loading historical data...
Loading historical data...
Loading historical data...
Loading historical data...
Other satellites on launch #24 in the year 2018 (2018-03-09 UTC)

Documentation

Showing up to 5 results
|